• In Germany
  • List of Countries
  • For 7 days
  • Water Temperature
  • Satellite Maps
  • Weather Map
  • Weather Widgets
  • user-avatar
    Login

    Hourly Weather Chios

    Today, 16 December, Saturday

    Time Temperature Precipitation Wind Pressure Humidity
    00:00 +16°C° 0 mm 10 mps 757 mmHg 81%
    01:00 +16°C° 0 mm 10 mps 757 mmHg 82%
    02:00 +15°C° 0 mm 9 mps 756 mmHg 81%
    03:00 +16°C° 0.1 mm 9 mps 756 mmHg 83%
    04:00 +16°C° 0.1 mm 9 mps 756 mmHg 84%
    05:00 +16°C° 0.1 mm 9 mps 756 mmHg 86%
    06:00 +16°C° 0 mm 9 mps 756 mmHg 86%
    07:00 +16°C° 0 mm 10 mps 756 mmHg 86%
    08:00 +16°C° 0 mm 10 mps 756 mmHg 86%
    09:00 +16°C° 0 mm 10 mps 756 mmHg 84%
    10:00 +16°C° 0 mm 11 mps 756 mmHg 82%
    11:00 +16°C° 0 mm 11 mps 756 mmHg 80%
    12:00 +17°C° 0 mm 11 mps 756 mmHg 79%
    13:00 +17°C° 0 mm 11 mps 756 mmHg 78%
    14:00 +17°C° 0 mm 11 mps 756 mmHg 77%
    15:00 +17°C° 0 mm 11 mps 755 mmHg 78%
    16:00 +16°C° 0 mm 10 mps 755 mmHg 80%
    17:00 +16°C° 0 mm 10 mps 755 mmHg 82%
    18:00 +16°C° 0.5 mm 10 mps 755 mmHg 83%
    19:00 +16°C° 0.5 mm 10 mps 755 mmHg 84%
    20:00 +16°C° 0.5 mm 10 mps 755 mmHg 86%
    21:00 +16°C° 0.2 mm 10 mps 755 mmHg 85%
    22:00 +16°C° 0.2 mm 10 mps 755 mmHg 85%
    23:00 +16°C° 0.2 mm 9 mps 755 mmHg 84%

    Tomorrow, 17 December, Sunday

    Time Temperature Precipitation Wind Pressure Humidity
    00:00 +16°C° 0 mm 10 mps 755 mmHg 84%
    01:00 +16°C° 0 mm 10 mps 755 mmHg 85%
    02:00 +16°C° 0 mm 11 mps 755 mmHg 85%
    03:00 +16°C° 0.1 mm 11 mps 755 mmHg 85%
    04:00 +15°C° 0.1 mm 12 mps 754 mmHg 85%
    05:00 +15°C° 0.1 mm 12 mps 754 mmHg 85%
    06:00 +15°C° 0.2 mm 12 mps 754 mmHg 84%
    07:00 +15°C° 0.2 mm 12 mps 754 mmHg 83%
    08:00 +15°C° 0.2 mm 12 mps 753 mmHg 82%
    09:00 +15°C° 0.2 mm 12 mps 753 mmHg 80%
    10:00 +17°C° 0.2 mm 12 mps 753 mmHg 78%
    11:00 +17°C° 0.2 mm 12 mps 754 mmHg 75%
    12:00 +17°C° 0.3 mm 12 mps 753 mmHg 75%
    13:00 +17°C° 0.3 mm 12 mps 753 mmHg 74%
    14:00 +18°C° 0.3 mm 12 mps 753 mmHg 74%
    15:00 +17°C° 0.7 mm 10 mps 753 mmHg 78%
    16:00 +16°C° 0.7 mm 8 mps 753 mmHg 83%
    17:00 +16°C° 0.7 mm 7 mps 754 mmHg 87%
    18:00 +15°C° 0.9 mm 6 mps 754 mmHg 87%
    19:00 +15°C° 0.9 mm 5 mps 754 mmHg 87%
    20:00 +14°C° 0.9 mm 4 mps 755 mmHg 87%
    21:00 +14°C° 0.4 mm 3 mps 755 mmHg 86%
    22:00 +14°C° 0.4 mm 3 mps 756 mmHg 84%
    23:00 +15°C° 0.4 mm 2 mps 756 mmHg 83%

    Day after tomorrow, 18 December, Monday

    Time Temperature Precipitation Wind Pressure Humidity
    00:00 +15°C° 0.1 mm 2 mps 756 mmHg 82%
    01:00 +14°C° 0.1 mm 3 mps 756 mmHg 82%
    02:00 +14°C° 0.1 mm 3 mps 756 mmHg 81%
    03:00 +13°C° 0 mm 3 mps 756 mmHg 81%
    04:00 +13°C° 0 mm 3 mps 756 mmHg 81%
    05:00 +14°C° 0 mm 2 mps 756 mmHg 81%
    06:00 +14°C° 0 mm 2 mps 757 mmHg 81%
    07:00 +14°C° 0 mm 2 mps 757 mmHg 80%
    08:00 +14°C° 0 mm 2 mps 757 mmHg 80%
    09:00 +13°C° 0 mm 3 mps 757 mmHg 76%
    10:00 +14°C° 0 mm 3 mps 758 mmHg 72%
    11:00 +14°C° 0 mm 3 mps 758 mmHg 68%
    12:00 +14°C° 0 mm 3 mps 757 mmHg 68%
    13:00 +14°C° 0 mm 3 mps 757 mmHg 67%
    14:00 +14°C° 0 mm 4 mps 757 mmHg 67%
    15:00 +14°C° 0.1 mm 3 mps 757 mmHg 68%
    16:00 +13°C° 0.1 mm 3 mps 757 mmHg 69%
    17:00 +13°C° 0.1 mm 3 mps 757 mmHg 71%
    18:00 +13°C° 0.1 mm 3 mps 757 mmHg 71%
    19:00 +12°C° 0.1 mm 3 mps 757 mmHg 71%
    20:00 +12°C° 0.1 mm 3 mps 757 mmHg 71%
    21:00 +12°C° 0.3 mm 3 mps 757 mmHg 72%
    22:00 +12°C° 0.3 mm 3 mps 757 mmHg 72%
    23:00 +12°C° 0.3 mm 3 mps 758 mmHg 72%

    19 December, Tuesday

    Time Temperature Precipitation Wind Pressure Humidity
    00:00 +12°C° 0.8 mm 4 mps 758 mmHg 73%
    01:00 +11°C° 0.8 mm 4 mps 758 mmHg 74%
    02:00 +11°C° 0.8 mm 4 mps 758 mmHg 75%
    03:00 +11°C° 0.1 mm 4 mps 759 mmHg 75%
    04:00 +11°C° 0.1 mm 4 mps 759 mmHg 75%
    05:00 +10°C° 0.1 mm 4 mps 759 mmHg 76%
    06:00 +10°C° 0 mm 4 mps 760 mmHg 78%
    07:00 +10°C° 0 mm 4 mps 760 mmHg 79%
    08:00 +10°C° 0 mm 4 mps 761 mmHg 81%
    09:00 +10°C° 0 mm 4 mps 761 mmHg 79%
    10:00 +11°C° 0 mm 4 mps 762 mmHg 77%
    11:00 +11°C° 0 mm 4 mps 762 mmHg 75%
    12:00 +11°C° 0 mm 4 mps 762 mmHg 74%
    13:00 +11°C° 0 mm 4 mps 762 mmHg 73%
    14:00 +12°C° 0 mm 4 mps 762 mmHg 72%
    15:00 +11°C° 0 mm 4 mps 762 mmHg 73%
    16:00 +11°C° 0 mm 4 mps 762 mmHg 74%
    17:00 +11°C° 0 mm 4 mps 762 mmHg 75%
    18:00 +11°C° 0 mm 4 mps 763 mmHg 75%
    19:00 +9°C° 0 mm 5 mps 763 mmHg 75%
    20:00 +9°C° 0 mm 5 mps 763 mmHg 75%
    21:00 +9°C° 0 mm 5 mps 763 mmHg 74%
    22:00 +10°C° 0 mm 4 mps 763 mmHg 73%
    23:00 +10°C° 0 mm 4 mps 763 mmHg 73%

    20 December, Wednesday

    Time Temperature Precipitation Wind Pressure Humidity
    00:00 +10°C° 0 mm 4 mps 763 mmHg 74%
    01:00 +8°C° 0 mm 5 mps 763 mmHg 75%
    02:00 +8°C° 0 mm 5 mps 763 mmHg 75%
    03:00 +8°C° 0 mm 5 mps 763 mmHg 76%
    04:00 +8°C° 0 mm 4 mps 763 mmHg 77%
    05:00 +8°C° 0 mm 4 mps 763 mmHg 78%
    06:00 +8°C° 0 mm 4 mps 763 mmHg 79%
    07:00 +8°C° 0 mm 4 mps 763 mmHg 79%
    08:00 +8°C° 0 mm 4 mps 764 mmHg 79%
    09:00 +8°C° 0.1 mm 4 mps 764 mmHg 77%
    10:00 +10°C° 0.1 mm 4 mps 764 mmHg 74%
    11:00 +9°C° 0.1 mm 5 mps 765 mmHg 72%
    12:00 +9°C° 0.1 mm 5 mps 764 mmHg 71%
    13:00 +9°C° 0.1 mm 6 mps 764 mmHg 70%
    14:00 +9°C° 0.1 mm 6 mps 764 mmHg 69%
    15:00 +9°C° 0.1 mm 6 mps 764 mmHg 71%
    16:00 +9°C° 0.1 mm 7 mps 764 mmHg 72%
    17:00 +8°C° 0.1 mm 7 mps 765 mmHg 74%
    18:00 +8°C° 0.1 mm 7 mps 765 mmHg 75%
    19:00 +8°C° 0.1 mm 7 mps 765 mmHg 76%
    20:00 +6°C° 0.1 mm 7 mps 765 mmHg 77%
    21:00 +6°C° 0.1 mm 8 mps 765 mmHg 79%
    22:00 +6°C° 0.1 mm 8 mps 766 mmHg 81%
    23:00 +5°C° 0.1 mm 8 mps 766 mmHg 82%

    21 December, Thursday

    Time Temperature Precipitation Wind Pressure Humidity
    00:00 +5°C° 0.1 mm 8 mps 766 mmHg 80%
    01:00 +5°C° 0.1 mm 8 mps 766 mmHg 78%
    02:00 +5°C° 0.1 mm 7 mps 766 mmHg 76%
    03:00 +5°C° 0 mm 7 mps 766 mmHg 76%
    04:00 +4°C° 0 mm 7 mps 766 mmHg 76%
    05:00 +4°C° 0 mm 7 mps 766 mmHg 76%
    06:00 +4°C° 0 mm 7 mps 766 mmHg 74%
    07:00 +4°C° 0 mm 7 mps 766 mmHg 73%
    08:00 +4°C° 0 mm 7 mps 767 mmHg 72%
    09:00 +5°C° 0 mm 6 mps 767 mmHg 69%
    10:00 +5°C° 0 mm 6 mps 767 mmHg 66%
    11:00 +5°C° 0 mm 6 mps 767 mmHg 63%
    12:00 +5°C° 0 mm 6 mps 767 mmHg 61%
    13:00 +7°C° 0 mm 6 mps 767 mmHg 60%
    14:00 +7°C° 0 mm 6 mps 766 mmHg 59%
    15:00 +5°C° 0 mm 6 mps 766 mmHg 60%
    16:00 +6°C° 0 mm 5 mps 766 mmHg 61%
    17:00 +6°C° 0 mm 5 mps 766 mmHg 62%
    18:00 +6°C° 0 mm 5 mps 766 mmHg 62%
    19:00 +6°C° 0 mm 4 mps 766 mmHg 62%
    20:00 +6°C° 0 mm 4 mps 766 mmHg 62%
    21:00 +6°C° 0 mm 4 mps 766 mmHg 63%
    22:00 +7°C° 0 mm 3 mps 766 mmHg 63%
    23:00 +7°C° 0 mm 3 mps 766 mmHg 64%
    Show more